Year,Month,Day,Hour,Minute,Value (Times are PST for temperature in C)
2017,05,19,00,00,11.30
2017,05,19,00,01,11.30
2017,05,19,00,02,11.30
2017,05,19,00,03,11.30
2017,05,19,00,04,11.20
2017,05,19,00,05,11.20
2017,05,19,00,06,11.20
2017,05,19,00,07,11.20
2017,05,19,00,08,11.20
2017,05,19,00,09,11.20
2017,05,19,00,10,11.20
2017,05,19,00,11,11.10
2017,05,19,00,12,11.10
2017,05,19,00,13,11.10
2017,05,19,00,14,11.10
2017,05,19,00,15,11.10
2017,05,19,00,16,11.10
2017,05,19,00,17,11.00
2017,05,19,00,18,11.00
2017,05,19,00,19,11.00
2017,05,19,00,20,11.00
2017,05,19,00,21,10.90
2017,05,19,00,22,10.90
2017,05,19,00,23,10.90
2017,05,19,00,24,10.90
2017,05,19,00,25,10.80
2017,05,19,00,26,10.80
2017,05,19,00,27,10.80
2017,05,19,00,28,10.80
2017,05,19,00,29,10.80
2017,05,19,00,30,10.80
2017,05,19,00,31,10.80
2017,05,19,00,32,10.70
2017,05,19,00,33,10.70
2017,05,19,00,34,10.70
2017,05,19,00,35,10.70
2017,05,19,00,36,10.70
2017,05,19,00,37,10.70
2017,05,19,00,38,10.70
2017,05,19,00,39,10.60
2017,05,19,00,40,10.60
2017,05,19,00,41,10.60
2017,05,19,00,42,10.60
2017,05,19,00,43,10.50
2017,05,19,00,44,10.50
2017,05,19,00,45,10.50
2017,05,19,00,46,10.40
2017,05,19,00,47,10.40
2017,05,19,00,48,10.40
2017,05,19,00,49,10.40
2017,05,19,00,50,10.40
2017,05,19,00,51,10.30
2017,05,19,00,52,10.30
2017,05,19,00,53,10.30
2017,05,19,00,54,10.30
2017,05,19,00,55,10.30
2017,05,19,00,56,10.30
2017,05,19,00,57,10.20
2017,05,19,00,58,10.20
2017,05,19,00,59,10.20
2017,05,19,01,00,10.20
2017,05,19,01,01,10.20
2017,05,19,01,02,10.20
2017,05,19,01,03,10.20
2017,05,19,01,04,10.10
2017,05,19,01,05,10.10
2017,05,19,01,06,10.10
2017,05,19,01,07,10.10
2017,05,19,01,08,10.10
2017,05,19,01,09,10.10
2017,05,19,01,10,10.10
2017,05,19,01,11,10.10
2017,05,19,01,12,10.00
2017,05,19,01,13,10.00
2017,05,19,01,14,10.00
2017,05,19,01,15,10.00
2017,05,19,01,16,10.00
2017,05,19,01,17,10.00
2017,05,19,01,18,10.00
2017,05,19,01,19,10.00
2017,05,19,01,20,10.00
2017,05,19,01,21,10.00
2017,05,19,01,22,10.00
2017,05,19,01,23,9.90
2017,05,19,01,24,9.90
2017,05,19,01,25,9.90
2017,05,19,01,26,9.90
2017,05,19,01,27,9.90
2017,05,19,01,28,9.90
2017,05,19,01,29,9.90
2017,05,19,01,30,9.80
2017,05,19,01,31,9.80
2017,05,19,01,32,9.80
2017,05,19,01,33,9.80
2017,05,19,01,34,9.80
2017,05,19,01,35,9.80
2017,05,19,01,36,9.70
2017,05,19,01,37,9.70
2017,05,19,01,38,9.70
2017,05,19,01,39,9.70
2017,05,19,01,40,9.70
2017,05,19,01,41,9.70
2017,05,19,01,42,9.70
2017,05,19,01,43,9.70
2017,05,19,01,44,9.70
2017,05,19,01,45,9.70
2017,05,19,01,46,9.70
2017,05,19,01,47,9.70
2017,05,19,01,48,9.70
2017,05,19,01,49,9.70
2017,05,19,01,50,9.70
2017,05,19,01,51,9.70
2017,05,19,01,52,9.70
2017,05,19,01,53,9.60
2017,05,19,01,54,9.60
2017,05,19,01,55,9.60
2017,05,19,01,56,9.60
2017,05,19,01,57,9.60
2017,05,19,01,58,9.60
2017,05,19,01,59,9.60
2017,05,19,02,00,9.60
2017,05,19,02,01,9.60
2017,05,19,02,02,9.60
2017,05,19,02,03,9.60
2017,05,19,02,04,9.60
2017,05,19,02,05,9.60
2017,05,19,02,06,9.60
2017,05,19,02,07,9.60
2017,05,19,02,08,9.60
2017,05,19,02,09,9.60
2017,05,19,02,10,9.60
2017,05,19,02,11,9.50
2017,05,19,02,12,9.50
2017,05,19,02,13,9.50
2017,05,19,02,14,9.50
2017,05,19,02,15,9.50
2017,05,19,02,16,9.50
2017,05,19,02,17,9.40
2017,05,19,02,18,9.40
2017,05,19,02,19,9.40
2017,05,19,02,20,9.40
2017,05,19,02,21,9.40
2017,05,19,02,22,9.40
2017,05,19,02,23,9.40
2017,05,19,02,24,9.40
2017,05,19,02,25,9.40
2017,05,19,02,26,9.40
2017,05,19,02,27,9.40
2017,05,19,02,28,9.40
2017,05,19,02,29,9.40
2017,05,19,02,30,9.40
2017,05,19,02,31,9.40
2017,05,19,02,32,9.40
2017,05,19,02,33,9.30
2017,05,19,02,34,9.30
2017,05,19,02,35,9.30
2017,05,19,02,36,9.30
2017,05,19,02,37,9.30
2017,05,19,02,38,9.30
2017,05,19,02,39,9.30
2017,05,19,02,40,9.30
2017,05,19,02,41,9.30
2017,05,19,02,42,9.30
2017,05,19,02,43,9.30
2017,05,19,02,44,9.30
2017,05,19,02,45,9.30
2017,05,19,02,46,9.30
2017,05,19,02,47,9.30
2017,05,19,02,48,9.30
2017,05,19,02,49,9.30
2017,05,19,02,50,9.30
2017,05,19,02,51,9.30
2017,05,19,02,52,9.30
2017,05,19,02,53,9.30
2017,05,19,02,54,9.20
2017,05,19,02,55,9.20
2017,05,19,02,56,9.20
2017,05,19,02,57,9.20
2017,05,19,02,58,9.20
2017,05,19,02,59,9.20
2017,05,19,03,00,9.20
2017,05,19,03,01,9.20
2017,05,19,03,02,9.20
2017,05,19,03,03,9.20
2017,05,19,03,04,9.20
2017,05,19,03,05,9.20
2017,05,19,03,06,9.20
2017,05,19,03,07,9.20
2017,05,19,03,08,9.10
2017,05,19,03,09,9.10
2017,05,19,03,10,9.10
2017,05,19,03,11,9.10
2017,05,19,03,12,9.10
2017,05,19,03,13,9.10
2017,05,19,03,14,9.10
2017,05,19,03,15,9.10
2017,05,19,03,16,9.10
2017,05,19,03,17,9.10
2017,05,19,03,18,9.10
2017,05,19,03,19,9.10
2017,05,19,03,20,9.10
2017,05,19,03,21,9.10
2017,05,19,03,22,9.10
2017,05,19,03,23,9.10
2017,05,19,03,24,9.10
2017,05,19,03,25,9.00
2017,05,19,03,26,9.00
2017,05,19,03,27,9.00
2017,05,19,03,28,9.00
2017,05,19,03,29,9.00
2017,05,19,03,30,9.00
2017,05,19,03,31,8.90
2017,05,19,03,32,8.90
2017,05,19,03,33,8.90
2017,05,19,03,34,8.90
2017,05,19,03,35,8.90
2017,05,19,03,36,8.90
2017,05,19,03,37,8.90
2017,05,19,03,38,8.90
2017,05,19,03,39,8.90
2017,05,19,03,40,8.90
2017,05,19,03,41,8.90
2017,05,19,03,42,8.90
2017,05,19,03,43,8.90
2017,05,19,03,44,8.90
2017,05,19,03,45,8.90
2017,05,19,03,46,8.90
2017,05,19,03,47,8.90
2017,05,19,03,48,8.90
2017,05,19,03,49,8.90
2017,05,19,03,50,8.90
2017,05,19,03,51,8.90
2017,05,19,03,52,8.90
2017,05,19,03,53,8.90
2017,05,19,03,54,8.90
2017,05,19,03,55,8.90
2017,05,19,03,56,8.90
2017,05,19,03,57,8.90
2017,05,19,03,58,8.90
2017,05,19,03,59,8.90
2017,05,19,04,00,8.90
2017,05,19,04,01,8.90
2017,05,19,04,02,8.90
2017,05,19,04,03,9.00
2017,05,19,04,04,9.00
2017,05,19,04,05,9.00
2017,05,19,04,06,9.00
2017,05,19,04,07,9.00
2017,05,19,04,08,9.00
2017,05,19,04,09,9.10
2017,05,19,04,10,9.10
2017,05,19,04,11,9.10
2017,05,19,04,12,9.00
2017,05,19,04,13,9.00
2017,05,19,04,14,9.00
2017,05,19,04,15,9.00
2017,05,19,04,16,9.00
2017,05,19,04,17,8.90
2017,05,19,04,18,8.90
2017,05,19,04,19,8.90
2017,05,19,04,20,8.90
2017,05,19,04,21,8.90
2017,05,19,04,22,8.90
2017,05,19,04,23,8.80
2017,05,19,04,24,8.80
2017,05,19,04,25,8.80
2017,05,19,04,26,8.80
2017,05,19,04,27,8.80
2017,05,19,04,28,8.80
2017,05,19,04,29,8.80
2017,05,19,04,30,8.80
2017,05,19,04,31,8.80
2017,05,19,04,32,8.80
2017,05,19,04,33,8.80
2017,05,19,04,34,8.80
2017,05,19,04,35,8.80
2017,05,19,04,36,8.80
2017,05,19,04,37,8.70
2017,05,19,04,38,8.70
2017,05,19,04,39,8.70
2017,05,19,04,40,8.70
2017,05,19,04,41,8.70
2017,05,19,04,42,8.70
2017,05,19,04,43,8.70
2017,05,19,04,44,8.70
2017,05,19,04,45,8.70
2017,05,19,04,46,8.70
2017,05,19,04,47,8.70
2017,05,19,04,48,8.70
2017,05,19,04,49,8.70
2017,05,19,04,50,8.70
2017,05,19,04,51,8.70
2017,05,19,04,52,8.70
2017,05,19,04,53,8.70
2017,05,19,04,54,8.70
2017,05,19,04,55,8.70
2017,05,19,04,56,8.70
2017,05,19,04,57,8.70
2017,05,19,04,58,8.70
2017,05,19,04,59,8.70
2017,05,19,05,00,8.70
2017,05,19,05,01,8.70
2017,05,19,05,02,8.70
2017,05,19,05,03,8.70
2017,05,19,05,04,8.70
2017,05,19,05,05,8.60
2017,05,19,05,06,8.60
2017,05,19,05,07,8.60
2017,05,19,05,08,8.60
2017,05,19,05,09,8.70
2017,05,19,05,10,8.70
2017,05,19,05,11,8.70
2017,05,19,05,12,8.70
2017,05,19,05,13,8.70
2017,05,19,05,14,8.70
2017,05,19,05,15,8.70
2017,05,19,05,16,8.70
2017,05,19,05,17,8.70
2017,05,19,05,18,8.70
2017,05,19,05,19,8.70
2017,05,19,05,20,8.70
2017,05,19,05,21,8.70
2017,05,19,05,22,8.70
2017,05,19,05,23,8.70
2017,05,19,05,24,8.70
2017,05,19,05,25,8.70
2017,05,19,05,26,8.70
2017,05,19,05,27,8.70
2017,05,19,05,28,8.70
2017,05,19,05,29,8.70
2017,05,19,05,30,8.70
2017,05,19,05,31,8.70
2017,05,19,05,32,8.70
2017,05,19,05,33,8.70
2017,05,19,05,34,8.70
2017,05,19,05,35,8.80
2017,05,19,05,36,8.80
2017,05,19,05,37,8.80
2017,05,19,05,38,8.80
2017,05,19,05,39,8.80
2017,05,19,05,40,8.80
2017,05,19,05,41,8.80
2017,05,19,05,42,8.80
2017,05,19,05,43,8.80
2017,05,19,05,44,8.80
2017,05,19,05,45,8.80
2017,05,19,05,46,8.80
2017,05,19,05,47,8.80
2017,05,19,05,48,8.80
2017,05,19,05,49,8.90
2017,05,19,05,50,8.90
2017,05,19,05,51,8.90
2017,05,19,05,52,8.90
2017,05,19,05,53,8.90
2017,05,19,05,54,8.90
2017,05,19,05,55,8.90
2017,05,19,05,56,8.90
2017,05,19,05,57,8.90
2017,05,19,05,58,8.90
2017,05,19,05,59,8.90
2017,05,19,06,00,9.00
2017,05,19,06,01,9.00
2017,05,19,06,02,9.00
2017,05,19,06,03,9.00
2017,05,19,06,04,9.00
2017,05,19,06,05,9.00
2017,05,19,06,06,9.00
2017,05,19,06,07,9.00
2017,05,19,06,08,9.10
2017,05,19,06,09,9.00
2017,05,19,06,10,9.10
2017,05,19,06,11,9.10
2017,05,19,06,12,9.10
2017,05,19,06,13,9.10
2017,05,19,06,14,9.10
2017,05,19,06,15,9.10
2017,05,19,06,16,9.10
2017,05,19,06,17,9.10
2017,05,19,06,18,9.10
2017,05,19,06,19,9.10
2017,05,19,06,20,9.10
2017,05,19,06,21,9.10
2017,05,19,06,22,9.10
2017,05,19,06,23,9.10
2017,05,19,06,24,9.10
2017,05,19,06,25,9.10
2017,05,19,06,26,9.10
2017,05,19,06,27,9.20
2017,05,19,06,28,9.20
2017,05,19,06,29,9.20
2017,05,19,06,30,9.20
2017,05,19,06,31,9.20
2017,05,19,06,32,9.20
2017,05,19,06,33,9.30
2017,05,19,06,34,9.30
2017,05,19,06,35,9.30
2017,05,19,06,36,9.30
2017,05,19,06,37,9.40
2017,05,19,06,38,9.40
2017,05,19,06,39,9.40
2017,05,19,06,40,9.50
2017,05,19,06,41,9.50
2017,05,19,06,42,9.60
2017,05,19,06,43,9.60
2017,05,19,06,44,9.60
2017,05,19,06,45,9.70
2017,05,19,06,46,9.70
2017,05,19,06,47,9.70
2017,05,19,06,48,9.70
2017,05,19,06,49,9.80
2017,05,19,06,50,9.80
2017,05,19,06,51,9.80
2017,05,19,06,52,9.80
2017,05,19,06,53,9.80
2017,05,19,06,54,9.90
2017,05,19,06,55,9.90
2017,05,19,06,56,9.90
2017,05,19,06,57,9.90
2017,05,19,06,58,10.00
2017,05,19,06,59,10.00
2017,05,19,07,00,10.00
2017,05,19,07,01,10.10
2017,05,19,07,02,10.10
2017,05,19,07,03,10.10
2017,05,19,07,04,10.20
2017,05,19,07,05,10.20
2017,05,19,07,06,10.20
2017,05,19,07,07,10.20
2017,05,19,07,08,10.30
2017,05,19,07,09,10.30
2017,05,19,07,10,10.30
2017,05,19,07,11,10.30
2017,05,19,07,12,10.40
2017,05,19,07,13,10.40
2017,05,19,07,14,10.40
2017,05,19,07,15,10.40
2017,05,19,07,16,10.50
2017,05,19,07,17,10.50
2017,05,19,07,18,10.60
2017,05,19,07,19,10.60
2017,05,19,07,20,10.60
2017,05,19,07,21,10.70
2017,05,19,07,22,10.70
2017,05,19,07,23,10.70
2017,05,19,07,24,10.80
2017,05,19,07,25,10.80
2017,05,19,07,26,10.80
2017,05,19,07,27,10.80
2017,05,19,07,28,10.90
2017,05,19,07,29,10.90
2017,05,19,07,30,10.90
2017,05,19,07,31,10.90
2017,05,19,07,32,11.00
2017,05,19,07,33,11.00
2017,05,19,07,34,11.10
2017,05,19,07,35,11.10
2017,05,19,07,36,11.10
2017,05,19,07,37,11.20
2017,05,19,07,38,11.20
2017,05,19,07,39,11.20
2017,05,19,07,40,11.30
2017,05,19,07,41,11.30
2017,05,19,07,42,11.30
2017,05,19,07,43,11.30
2017,05,19,07,44,11.40
2017,05,19,07,45,11.40
2017,05,19,07,46,11.40
2017,05,19,07,47,11.40
2017,05,19,07,48,11.50
2017,05,19,07,49,11.50
2017,05,19,07,50,11.50
2017,05,19,07,51,11.60
2017,05,19,07,52,11.60
2017,05,19,07,53,11.70
2017,05,19,07,54,11.70
2017,05,19,07,55,11.80
2017,05,19,07,56,11.80
2017,05,19,07,57,11.90
2017,05,19,07,58,12.00
2017,05,19,07,59,12.10
2017,05,19,08,00,12.20
2017,05,19,08,01,12.20
2017,05,19,08,02,12.40
2017,05,19,08,03,12.50
2017,05,19,08,04,12.60
2017,05,19,08,05,12.60
2017,05,19,08,06,12.70
2017,05,19,08,07,12.80
2017,05,19,08,08,12.80
2017,05,19,08,09,12.80
2017,05,19,08,10,12.90
2017,05,19,08,11,12.90
2017,05,19,08,12,12.90
2017,05,19,08,13,12.90
2017,05,19,08,14,13.00
2017,05,19,08,15,13.00
2017,05,19,08,16,13.00
2017,05,19,08,17,13.00
2017,05,19,08,18,13.00
2017,05,19,08,19,13.10
2017,05,19,08,20,13.10
2017,05,19,08,21,13.10
2017,05,19,08,22,13.10
2017,05,19,08,23,13.10
2017,05,19,08,24,13.10
2017,05,19,08,25,13.10
2017,05,19,08,26,13.10
2017,05,19,08,27,13.10
2017,05,19,08,28,13.20
2017,05,19,08,29,13.20
2017,05,19,08,30,13.20
2017,05,19,08,31,13.30
2017,05,19,08,32,13.30
2017,05,19,08,33,13.30
2017,05,19,08,34,13.40
2017,05,19,08,35,13.40
2017,05,19,08,36,13.50
2017,05,19,08,37,13.50
2017,05,19,08,38,13.60
2017,05,19,08,39,13.60
2017,05,19,08,40,13.60
2017,05,19,08,41,13.70
2017,05,19,08,42,13.70
2017,05,19,08,43,13.80
2017,05,19,08,44,13.80
2017,05,19,08,45,13.80
2017,05,19,08,46,13.90
2017,05,19,08,47,14.00
2017,05,19,08,48,14.00
2017,05,19,08,49,14.00
2017,05,19,08,50,14.10
2017,05,19,08,51,14.10
2017,05,19,08,52,14.10
2017,05,19,08,53,14.20
2017,05,19,08,54,14.20
2017,05,19,08,55,14.20
2017,05,19,08,56,14.20
2017,05,19,08,57,14.30
2017,05,19,08,58,14.30
2017,05,19,08,59,14.30
2017,05,19,09,00,14.30
2017,05,19,09,01,14.40
2017,05,19,09,02,14.40
2017,05,19,09,03,14.40
2017,05,19,09,04,14.40
2017,05,19,09,05,14.40
2017,05,19,09,06,14.40
2017,05,19,09,07,14.40
2017,05,19,09,08,14.40
2017,05,19,09,09,14.40
2017,05,19,09,10,14.40
2017,05,19,09,11,14.40
2017,05,19,09,12,14.40
2017,05,19,09,13,14.40
2017,05,19,09,14,14.30
2017,05,19,09,15,14.30
2017,05,19,09,16,14.20
2017,05,19,09,17,14.10
2017,05,19,09,18,14.00
2017,05,19,09,19,14.00
2017,05,19,09,20,13.90
2017,05,19,09,21,13.90
2017,05,19,09,22,13.80
2017,05,19,09,23,13.80
2017,05,19,09,24,13.80
2017,05,19,09,25,13.80
2017,05,19,09,26,13.80
2017,05,19,09,27,13.70
2017,05,19,09,28,13.70
2017,05,19,09,29,13.70
2017,05,19,09,30,13.70
2017,05,19,09,31,13.70
2017,05,19,09,32,13.80
2017,05,19,09,33,13.80
2017,05,19,09,34,13.90
2017,05,19,09,35,14.00
2017,05,19,09,36,14.10
2017,05,19,09,37,14.10
2017,05,19,09,38,14.10
2017,05,19,09,39,14.10
2017,05,19,09,40,14.10
2017,05,19,09,41,14.10
2017,05,19,09,42,14.10
2017,05,19,09,43,14.10
2017,05,19,09,44,14.10
2017,05,19,09,45,14.20
2017,05,19,09,46,14.20
2017,05,19,09,47,14.30
2017,05,19,09,48,14.40
2017,05,19,09,49,14.40
2017,05,19,09,50,14.40
2017,05,19,09,51,14.40
2017,05,19,09,52,14.40
2017,05,19,09,53,14.50
2017,05,19,09,54,14.50
2017,05,19,09,55,14.50
2017,05,19,09,56,14.50
2017,05,19,09,57,14.50
2017,05,19,09,58,14.50
2017,05,19,09,59,14.50
2017,05,19,10,00,14.50
2017,05,19,10,01,14.50
2017,05,19,10,02,14.40
2017,05,19,10,03,14.40
2017,05,19,10,04,14.50
2017,05,19,10,05,14.50
2017,05,19,10,06,14.60
2017,05,19,10,07,14.60
2017,05,19,10,08,14.50
2017,05,19,10,09,14.50
2017,05,19,10,10,14.50
2017,05,19,10,11,14.50
2017,05,19,10,12,14.50
2017,05,19,10,13,14.60
2017,05,19,10,14,14.60
2017,05,19,10,15,14.60
2017,05,19,10,16,14.70
2017,05,19,10,17,14.80
2017,05,19,10,18,14.80
2017,05,19,10,19,14.90
2017,05,19,10,20,15.00
2017,05,19,10,21,15.00
2017,05,19,10,22,15.10
2017,05,19,10,23,15.10
2017,05,19,10,24,15.20
2017,05,19,10,25,15.20
2017,05,19,10,26,15.20
2017,05,19,10,27,15.20
2017,05,19,10,28,15.20
2017,05,19,10,29,15.10
2017,05,19,10,30,15.00
2017,05,19,10,31,15.00
2017,05,19,10,32,15.00
2017,05,19,10,33,15.00
2017,05,19,10,34,15.00
2017,05,19,10,35,15.00
2017,05,19,10,36,15.00
2017,05,19,10,37,15.00
2017,05,19,10,38,15.00
2017,05,19,10,39,15.10
2017,05,19,10,40,15.30
2017,05,19,10,41,15.40
2017,05,19,10,42,15.40
2017,05,19,10,43,15.40
2017,05,19,10,44,15.40
2017,05,19,10,45,15.50
2017,05,19,10,46,15.50
2017,05,19,10,47,15.60
2017,05,19,10,48,15.60
2017,05,19,10,49,15.70
2017,05,19,10,50,15.70
2017,05,19,10,51,15.70
2017,05,19,10,52,15.70
2017,05,19,10,53,15.70
2017,05,19,10,54,15.70
2017,05,19,10,55,15.70
2017,05,19,10,56,15.70
2017,05,19,10,57,15.60
2017,05,19,10,58,15.60
2017,05,19,10,59,15.60
2017,05,19,11,00,15.50
2017,05,19,11,01,15.50
2017,05,19,11,02,15.40
2017,05,19,11,03,15.30
2017,05,19,11,04,15.30
2017,05,19,11,05,15.20
2017,05,19,11,06,15.10
2017,05,19,11,07,15.00
2017,05,19,11,08,15.00
2017,05,19,11,09,15.00
2017,05,19,11,10,15.00
2017,05,19,11,11,15.00
2017,05,19,11,12,15.00
2017,05,19,11,13,15.00
2017,05,19,11,14,15.10
2017,05,19,11,15,15.10
2017,05,19,11,16,15.10
2017,05,19,11,17,15.10
2017,05,19,11,18,15.20
2017,05,19,11,19,15.20
2017,05,19,11,20,15.30
2017,05,19,11,21,15.30
2017,05,19,11,22,15.40
2017,05,19,11,23,15.40
2017,05,19,11,24,15.30
2017,05,19,11,25,15.30
2017,05,19,11,26,15.30
2017,05,19,11,27,15.30
2017,05,19,11,28,15.40
2017,05,19,11,29,15.40
2017,05,19,11,30,15.40
2017,05,19,11,31,15.40
2017,05,19,11,32,15.50
2017,05,19,11,33,15.50
2017,05,19,11,34,15.60
2017,05,19,11,35,15.70
2017,05,19,11,36,15.70
2017,05,19,11,37,15.80
2017,05,19,11,38,15.90
2017,05,19,11,39,16.00
2017,05,19,11,40,16.00
2017,05,19,11,41,16.00
2017,05,19,11,42,16.10
2017,05,19,11,43,16.20
2017,05,19,11,44,16.20
2017,05,19,11,45,16.30
2017,05,19,11,46,16.30
2017,05,19,11,47,16.30
2017,05,19,11,48,16.30
2017,05,19,11,49,16.30
2017,05,19,11,50,16.40
2017,05,19,11,51,16.40
2017,05,19,11,52,16.40
2017,05,19,11,53,16.40
2017,05,19,11,54,16.40
2017,05,19,11,55,16.40
2017,05,19,11,56,16.40
2017,05,19,11,57,16.40
2017,05,19,11,58,16.40
2017,05,19,11,59,16.40
2017,05,19,12,00,16.50
2017,05,19,12,01,16.50
2017,05,19,12,02,16.60
2017,05,19,12,03,16.70
2017,05,19,12,04,16.70
2017,05,19,12,05,16.70
2017,05,19,12,06,16.80
2017,05,19,12,07,16.80
2017,05,19,12,08,16.80
2017,05,19,12,09,16.80
2017,05,19,12,10,16.70
2017,05,19,12,11,16.60
2017,05,19,12,12,16.50
2017,05,19,12,13,16.50
2017,05,19,12,14,16.50
2017,05,19,12,15,16.50
2017,05,19,12,16,16.50
2017,05,19,12,17,16.40
2017,05,19,12,18,16.40
2017,05,19,12,19,16.40
2017,05,19,12,20,16.40
2017,05,19,12,21,16.50
2017,05,19,12,22,16.50
2017,05,19,12,23,16.60
2017,05,19,12,24,16.70
2017,05,19,12,25,16.70
2017,05,19,12,26,16.80
2017,05,19,12,27,16.90
2017,05,19,12,28,16.90
2017,05,19,12,29,16.90
2017,05,19,12,30,17.00
2017,05,19,12,31,17.00
2017,05,19,12,32,17.00
2017,05,19,12,33,17.10
2017,05,19,12,34,17.10
2017,05,19,12,35,17.10
2017,05,19,12,36,17.20
2017,05,19,12,37,17.30
2017,05,19,12,38,17.30
2017,05,19,12,39,17.30
2017,05,19,12,40,17.40
2017,05,19,12,41,17.40
2017,05,19,12,42,17.50
2017,05,19,12,43,17.60
2017,05,19,12,44,17.60
2017,05,19,12,45,17.60
2017,05,19,12,46,17.70
2017,05,19,12,47,17.80
2017,05,19,12,48,17.80
2017,05,19,12,49,17.90
2017,05,19,12,50,17.90
2017,05,19,12,51,17.90
2017,05,19,12,52,17.80
2017,05,19,12,53,17.50
2017,05,19,12,54,17.30
2017,05,19,12,55,17.10
2017,05,19,12,56,16.80
2017,05,19,12,57,16.60
2017,05,19,12,58,16.50
2017,05,19,12,59,16.40
2017,05,19,13,00,16.30
2017,05,19,13,01,16.30
2017,05,19,13,02,16.30
2017,05,19,13,03,16.30
2017,05,19,13,04,16.30
2017,05,19,13,05,16.30
2017,05,19,13,06,16.50
2017,05,19,13,07,16.50
2017,05,19,13,08,16.60
2017,05,19,13,09,16.60
2017,05,19,13,10,16.60
2017,05,19,13,11,16.60
2017,05,19,13,12,16.50
2017,05,19,13,13,16.50
2017,05,19,13,14,16.40
2017,05,19,13,15,16.40
2017,05,19,13,16,16.40
2017,05,19,13,17,16.40
2017,05,19,13,18,16.50
2017,05,19,13,19,16.50
2017,05,19,13,20,16.50
2017,05,19,13,21,16.50
2017,05,19,13,22,16.50
2017,05,19,13,23,16.40
2017,05,19,13,24,16.40
2017,05,19,13,25,16.30
2017,05,19,13,26,16.30
2017,05,19,13,27,16.20
2017,05,19,13,28,16.10
2017,05,19,13,29,16.00
2017,05,19,13,30,15.90
2017,05,19,13,31,15.90
2017,05,19,13,32,15.90
2017,05,19,13,33,15.90
2017,05,19,13,34,16.00
2017,05,19,13,35,16.10
2017,05,19,13,36,16.20
2017,05,19,13,37,16.30
2017,05,19,13,38,16.40
2017,05,19,13,39,16.50
2017,05,19,13,40,16.60
2017,05,19,13,41,16.70
2017,05,19,13,42,16.70
2017,05,19,13,43,16.80
2017,05,19,13,44,16.90
2017,05,19,13,45,16.90
2017,05,19,13,46,16.90
2017,05,19,13,47,16.90
2017,05,19,13,48,16.80
2017,05,19,13,49,16.80
2017,05,19,13,50,16.80
2017,05,19,13,51,16.80
2017,05,19,13,52,16.80
2017,05,19,13,53,16.80
2017,05,19,13,54,16.80
2017,05,19,13,55,16.90
2017,05,19,13,56,16.90
2017,05,19,13,57,17.10
2017,05,19,13,58,17.20
2017,05,19,13,59,17.30
2017,05,19,14,00,17.50
2017,05,19,14,01,17.60
2017,05,19,14,02,17.70
2017,05,19,14,03,17.60
2017,05,19,14,04,17.50
2017,05,19,14,05,17.40
2017,05,19,14,06,17.30
2017,05,19,14,07,17.10
2017,05,19,14,08,16.90
2017,05,19,14,09,16.70
2017,05,19,14,10,16.50
2017,05,19,14,11,16.40
2017,05,19,14,12,16.30
2017,05,19,14,13,16.30
2017,05,19,14,14,16.20
2017,05,19,14,15,16.20
2017,05,19,14,16,16.20
2017,05,19,14,17,16.10
2017,05,19,14,18,16.00
2017,05,19,14,19,15.90
2017,05,19,14,20,15.80
2017,05,19,14,21,15.70
2017,05,19,14,22,15.70
2017,05,19,14,23,15.70
2017,05,19,14,24,15.70
2017,05,19,14,25,15.80
2017,05,19,14,26,15.80
2017,05,19,14,27,15.80
2017,05,19,14,28,15.80
2017,05,19,14,29,15.80
2017,05,19,14,30,15.90
2017,05,19,14,31,15.90
2017,05,19,14,32,15.90
2017,05,19,14,33,15.90
2017,05,19,14,34,15.90
2017,05,19,14,35,15.90
2017,05,19,14,36,16.00
2017,05,19,14,37,16.00
2017,05,19,14,38,16.00
2017,05,19,14,39,16.00
2017,05,19,14,40,16.10
2017,05,19,14,41,16.10
2017,05,19,14,42,16.30
2017,05,19,14,43,16.30
2017,05,19,14,44,16.40
2017,05,19,14,45,16.50
2017,05,19,14,46,16.70
2017,05,19,14,47,16.80
2017,05,19,14,48,16.90
2017,05,19,14,49,16.90
2017,05,19,14,50,17.00
2017,05,19,14,51,17.00
2017,05,19,14,52,17.10
2017,05,19,14,53,17.30
2017,05,19,14,54,17.40
2017,05,19,14,55,17.50
2017,05,19,14,56,17.50
2017,05,19,14,57,17.50
2017,05,19,14,58,17.40
2017,05,19,14,59,17.40
2017,05,19,15,00,17.30
2017,05,19,15,01,17.30
2017,05,19,15,02,17.30
2017,05,19,15,03,17.30
2017,05,19,15,04,17.40
2017,05,19,15,05,17.40
2017,05,19,15,06,17.50
2017,05,19,15,07,17.60
2017,05,19,15,08,17.60
2017,05,19,15,09,17.60
2017,05,19,15,10,17.60
2017,05,19,15,11,17.60
2017,05,19,15,12,17.60
2017,05,19,15,13,17.70
2017,05,19,15,14,17.70
2017,05,19,15,15,17.70
2017,05,19,15,16,17.60
2017,05,19,15,17,17.60
2017,05,19,15,18,17.60
2017,05,19,15,19,17.50
2017,05,19,15,20,17.40
2017,05,19,15,21,17.30
2017,05,19,15,22,17.30
2017,05,19,15,23,17.30
2017,05,19,15,24,17.30
2017,05,19,15,25,17.40
2017,05,19,15,26,17.40
2017,05,19,15,27,17.40
2017,05,19,15,28,17.40
2017,05,19,15,29,17.50
2017,05,19,15,30,17.50
2017,05,19,15,31,17.60
2017,05,19,15,32,17.60
2017,05,19,15,33,17.60
2017,05,19,15,34,17.70
2017,05,19,15,35,17.70
2017,05,19,15,36,17.60
2017,05,19,15,37,17.40
2017,05,19,15,38,17.30
2017,05,19,15,39,17.20
2017,05,19,15,40,17.20
2017,05,19,15,41,17.10
2017,05,19,15,42,17.00
2017,05,19,15,43,16.90
2017,05,19,15,44,16.80
2017,05,19,15,45,16.70
2017,05,19,15,46,16.50
2017,05,19,15,47,16.50
2017,05,19,15,48,16.40
2017,05,19,15,49,16.40
2017,05,19,15,50,16.30
2017,05,19,15,51,16.30
2017,05,19,15,52,16.20
2017,05,19,15,53,16.20
2017,05,19,15,54,16.20
2017,05,19,15,55,16.20
2017,05,19,15,56,16.20
2017,05,19,15,57,16.20
2017,05,19,15,58,16.20
2017,05,19,15,59,16.20
2017,05,19,16,00,16.20
2017,05,19,16,01,16.10
2017,05,19,16,02,16.10
2017,05,19,16,03,16.10
2017,05,19,16,04,16.20
2017,05,19,16,05,16.20
2017,05,19,16,06,16.20
2017,05,19,16,07,16.20
2017,05,19,16,08,16.20
2017,05,19,16,09,16.20
2017,05,19,16,10,16.20
2017,05,19,16,11,16.20
2017,05,19,16,12,16.20
2017,05,19,16,13,16.20
2017,05,19,16,14,16.30
2017,05,19,16,15,16.30
2017,05,19,16,16,16.30
2017,05,19,16,17,16.30
2017,05,19,16,18,16.30
2017,05,19,16,19,16.30
2017,05,19,16,20,16.30
2017,05,19,16,21,16.30
2017,05,19,16,22,16.40
2017,05,19,16,23,16.40
2017,05,19,16,24,16.40
2017,05,19,16,25,16.40
2017,05,19,16,26,16.40
2017,05,19,16,27,16.40
2017,05,19,16,28,16.40
2017,05,19,16,29,16.40
2017,05,19,16,30,16.40
2017,05,19,16,31,16.40
2017,05,19,16,32,16.40
2017,05,19,16,33,16.40
2017,05,19,16,34,16.50
2017,05,19,16,35,16.60
2017,05,19,16,36,16.60
2017,05,19,16,37,16.60
2017,05,19,16,38,16.50
2017,05,19,16,39,16.40
2017,05,19,16,40,16.30
2017,05,19,16,41,16.30
2017,05,19,16,42,16.30
2017,05,19,16,43,16.30
2017,05,19,16,44,16.30
2017,05,19,16,45,16.30
2017,05,19,16,46,16.30
2017,05,19,16,47,16.20
2017,05,19,16,48,16.20
2017,05,19,16,49,16.20
2017,05,19,16,50,16.20
2017,05,19,16,51,16.20
2017,05,19,16,52,16.20
2017,05,19,16,53,16.20
2017,05,19,16,54,16.20
2017,05,19,16,55,16.20
2017,05,19,16,56,16.20
2017,05,19,16,57,16.30
2017,05,19,16,58,16.30
2017,05,19,16,59,16.30
2017,05,19,17,00,16.30
2017,05,19,17,01,16.40
2017,05,19,17,02,16.40
2017,05,19,17,03,16.40
2017,05,19,17,04,16.50
2017,05,19,17,05,16.50
2017,05,19,17,06,16.60
2017,05,19,17,07,16.60
2017,05,19,17,08,16.60
2017,05,19,17,09,16.70
2017,05,19,17,10,16.70
2017,05,19,17,11,16.70
2017,05,19,17,12,16.80
2017,05,19,17,13,16.80
2017,05,19,17,14,16.80
2017,05,19,17,15,16.80
2017,05,19,17,16,16.80
2017,05,19,17,17,16.90
2017,05,19,17,18,16.90
2017,05,19,17,19,16.90
2017,05,19,17,20,16.90
2017,05,19,17,21,16.90
2017,05,19,17,22,16.90
2017,05,19,17,23,16.90
2017,05,19,17,24,16.90
2017,05,19,17,25,16.80
2017,05,19,17,26,16.80
2017,05,19,17,27,16.80
2017,05,19,17,28,16.80
2017,05,19,17,29,16.80
2017,05,19,17,30,16.80
2017,05,19,17,31,16.80
2017,05,19,17,32,16.80
2017,05,19,17,33,16.80
2017,05,19,17,34,16.80